�������l�o���
Date,Time,MP-1(��Sv/h),MP-2(��Sv/h),MP-3(��Sv/h),MP-4(��Sv/h),MP-5(��Sv/h),MP-6(��Sv/h),MP-7(��Sv/h),MP-8(��Sv/h),����,����(m/s),���J
2023/06/20,00:00,0.536,0.805,0.490,0.967,0.695,0.324,0.568,0.534,�k�k��,1.4,��
2023/06/20,00:10,0.536,0.805,0.490,0.965,0.695,0.323,0.568,0.533,�k�k��,1.1,��
2023/06/20,00:20,0.536,0.806,0.488,0.967,0.695,0.324,0.568,0.533,�k�k��,1.2,��
2023/06/20,00:30,0.538,0.805,0.489,0.966,0.694,0.325,0.569,0.535,�k,0.9,��
2023/06/20,00:40,0.536,0.807,0.490,0.969,0.695,0.325,0.568,0.534,�k,1.1,��
2023/06/20,00:50,0.537,0.806,0.489,0.966,0.695,0.326,0.568,0.534,�k�k��,1.2,��
2023/06/20,01:00,0.538,0.807,0.489,0.969,0.696,0.325,0.567,0.533,�k��,1.1,��
2023/06/20,01:10,0.537,0.807,0.487,0.967,0.695,0.325,0.568,0.534,���k��,0.9,��
2023/06/20,01:20,0.538,0.807,0.489,0.968,0.695,0.325,0.568,0.534,���k��,1.5,��
2023/06/20,01:30,0.537,0.805,0.489,0.969,0.696,0.324,0.569,0.533,�k��,1.7,��
2023/06/20,01:40,0.537,0.808,0.488,0.969,0.694,0.325,0.568,0.534,���k��,1.4,��
2023/06/20,01:50,0.536,0.805,0.488,0.969,0.695,0.324,0.569,0.534,���k��,1.4,��
2023/06/20,02:00,0.538,0.807,0.490,0.969,0.694,0.324,0.569,0.534,���k��,1.2,��
2023/06/20,02:10,0.536,0.805,0.487,0.969,0.694,0.324,0.569,0.533,���k��,1.2,��
2023/06/20,02:20,0.538,0.805,0.488,0.968,0.696,0.324,0.567,0.535,���k��,1.5,��
2023/06/20,02:30,0.538,0.806,0.489,0.966,0.695,0.325,0.569,0.535,�k��,1.2,��
2023/06/20,02:40,0.535,0.807,0.490,0.969,0.694,0.324,0.569,0.534,���k��,0.9,��
2023/06/20,02:50,0.537,0.804,0.488,0.968,0.694,0.325,0.568,0.534,�k��,1.4,��
2023/06/20,03:00,0.535,0.805,0.489,0.968,0.695,0.326,0.568,0.532,���k��,1.2,��
2023/06/20,03:10,0.537,0.807,0.489,0.966,0.693,0.325,0.569,0.535,���k��,1.1,��
2023/06/20,03:20,0.536,0.806,0.487,0.968,0.695,0.325,0.569,0.533,��,0.9,��
2023/06/20,03:30,0.536,0.807,0.488,0.968,0.694,0.324,0.568,0.534,���k��,0.8,��
2023/06/20,03:40,0.537,0.806,0.489,0.968,0.693,0.324,0.569,0.533,���k��,0.6,��
2023/06/20,03:50,0.537,0.804,0.487,0.967,0.692,0.326,0.568,0.533,��,1.2,��
2023/06/20,04:00,0.536,0.804,0.489,0.969,0.694,0.324,0.567,0.534,��,1.4,��
2023/06/20,04:10,0.536,0.806,0.489,0.968,0.695,0.325,0.569,0.534,���k��,2.0,��
2023/06/20,04:20,0.535,0.806,0.487,0.968,0.694,0.324,0.568,0.533,���k��,1.7,��
2023/06/20,04:30,0.535,0.806,0.488,0.970,0.695,0.324,0.569,0.533,���k��,2.0,��
2023/06/20,04:40,0.536,0.805,0.488,0.970,0.695,0.324,0.568,0.534,��,1.5,��
2023/06/20,04:50,0.536,0.804,0.487,0.970,0.693,0.324,0.568,0.535,��,1.9,��
2023/06/20,05:00,0.535,0.806,0.489,0.968,0.695,0.324,0.568,0.533,��,1.7,��
2023/06/20,05:10,0.535,0.805,0.488,0.969,0.695,0.325,0.567,0.534,��,1.5,��
2023/06/20,05:20,0.535,0.806,0.488,0.970,0.695,0.324,0.568,0.534,��,1.2,��
2023/06/20,05:30,0.535,0.806,0.488,0.969,0.695,0.326,0.568,0.534,���쐼,0.6,��
2023/06/20,05:40,0.535,0.805,0.487,0.967,0.693,0.324,0.568,0.533,-,CALM,��
2023/06/20,05:50,0.536,0.805,0.489,0.970,0.693,0.324,0.567,0.533,-,CALM,��
2023/06/20,06:00,0.537,0.805,0.489,0.970,0.693,0.325,0.568,0.534,���쐼,0.9,��
2023/06/20,06:10,0.537,0.804,0.489,0.968,0.693,0.325,0.568,0.535,���쐼,0.9,��
2023/06/20,06:20,0.537,0.806,0.489,0.969,0.694,0.324,0.569,0.534,�쐼,0.9,��
2023/06/20,06:30,0.538,0.806,0.488,0.971,0.694,0.322,0.568,0.534,-,CALM,��
2023/06/20,06:40,0.535,0.806,0.488,0.971,0.692,0.325,0.568,0.533,-,CALM,��
2023/06/20,06:50,0.536,0.804,0.489,0.968,0.694,0.324,0.569,0.533,���k��,1.2,��
2023/06/20,07:00,0.535,0.802,0.489,0.967,0.695,0.324,0.570,0.534,��,1.5,��
2023/06/20,07:10,0.534,0.802,0.487,0.968,0.692,0.322,0.571,0.534,�k��,0.6,��
2023/06/20,07:20,0.535,0.804,0.486,0.968,0.692,0.323,0.569,0.535,�k��,1.4,��
2023/06/20,07:30,0.534,0.804,0.488,0.969,0.693,0.322,0.567,0.534,���쓌,1.5,��
2023/06/20,07:40,0.535,0.804,0.487,0.969,0.695,0.323,0.567,0.533,��,1.7,��
2023/06/20,07:50,0.535,0.804,0.486,0.969,0.693,0.323,0.566,0.533,���쓌,2.6,��
2023/06/20,08:00,0.535,0.802,0.489,0.968,0.694,0.323,0.567,0.532,���k��,2.3,��
2023/06/20,08:10,0.534,0.803,0.489,0.968,0.695,0.322,0.568,0.532,���쓌,2.8,��
2023/06/20,08:20,0.534,0.803,0.488,0.968,0.694,0.322,0.566,0.531,��,2.8,��
2023/06/20,08:30,0.535,0.803,0.488,0.968,0.695,0.323,0.567,0.531,���쓌,3.6,��
2023/06/20,08:40,0.536,0.805,0.489,0.968,0.693,0.323,0.567,0.531,���쓌,3.0,��
2023/06/20,08:50,0.537,0.803,0.486,0.967,0.694,0.323,0.565,0.531,���쓌,3.3,��
2023/06/20,09:00,0.535,0.802,0.489,0.969,0.694,0.323,0.567,0.532,���쓌,3.7,��
2023/06/20,09:10,0.536,0.805,0.488,0.968,0.693,0.323,0.565,0.532,��,3.4,��
2023/06/20,09:20,0.537,0.803,0.488,0.969,0.694,0.322,0.566,0.532,���쓌,3.9,��
2023/06/20,09:30,0.537,0.805,0.487,0.967,0.694,0.322,0.567,0.531,��,3.5,��
2023/06/20,09:40,0.535,0.806,0.488,0.969,0.693,0.324,0.566,0.534,��,3.7,��
2023/06/20,09:50,0.538,0.805,0.487,0.968,0.693,0.324,0.567,0.531,��,3.8,��
2023/06/20,10:00,0.537,0.806,0.489,0.967,0.695,0.323,0.568,0.532,��,3.2,��
2023/06/20,10:10,0.535,0.805,0.488,0.967,0.695,0.323,0.566,0.533,���쓌,3.3,��
2023/06/20,10:20,0.536,0.807,0.488,0.969,0.695,0.322,0.566,0.532,��,3.7,��
2023/06/20,10:30,0.538,0.806,0.488,0.967,0.696,0.324,0.568,0.533,��,3.6,��
2023/06/20,10:40,0.537,0.806,0.489,0.970,0.697,0.323,0.567,0.532,���쓌,3.4,��
2023/06/20,10:50,0.537,0.807,0.487,0.968,0.697,0.323,0.567,0.533,��,3.3,��
2023/06/20,11:00,0.538,0.807,0.489,0.967,0.695,0.323,0.568,0.533,��,3.5,��
2023/06/20,11:10,0.539,0.806,0.489,0.969,0.696,0.323,0.567,0.533,���쓌,4.0,��
2023/06/20,11:20,0.537,0.806,0.489,0.968,0.696,0.324,0.567,0.532,���쓌,3.9,��
2023/06/20,11:30,0.541,0.808,0.488,0.964,0.698,0.323,0.566,0.531,���쓌,3.5,��
2023/06/20,11:40,0.539,0.807,0.490,0.967,0.699,0.322,0.568,0.533,���쓌,3.6,��
2023/06/20,11:50,0.539,0.805,0.488,0.967,0.698,0.324,0.567,0.534,���쓌,3.7,��
2023/06/20,12:00,0.540,0.807,0.491,0.969,0.698,0.324,0.567,0.533,���쓌,3.0,��
2023/06/20,12:10,0.538,0.809,0.489,0.969,0.696,0.324,0.567,0.532,�쓌,3.5,��
2023/06/20,12:20,0.539,0.808,0.488,0.968,0.699,0.324,0.567,0.533,�쓌,3.7,��
2023/06/20,12:30,0.537,0.810,0.487,0.969,0.698,0.325,0.567,0.532,�쓌,4.4,��
2023/06/20,12:40,0.538,0.807,0.490,0.967,0.699,0.324,0.567,0.531,�쓌,3.7,��
2023/06/20,12:50,0.539,0.807,0.491,0.968,0.698,0.324,0.568,0.534,�쓌,2.6,��
2023/06/20,13:00,0.540,0.807,0.489,0.970,0.700,0.324,0.566,0.534,�쓌,3.2,��
2023/06/20,13:10,0.538,0.807,0.489,0.966,0.697,0.323,0.567,0.533,�쓌,3.1,��
2023/06/20,13:20,0.540,0.808,0.489,0.970,0.698,0.325,0.566,0.534,���쓌,3.2,��
2023/06/20,13:30,0.538,0.808,0.491,0.969,0.700,0.324,0.569,0.533,�쓌,3.3,��
2023/06/20,13:40,0.541,0.808,0.488,0.968,0.701,0.325,0.568,0.533,�쓌,3.9,��
2023/06/20,13:50,0.541,0.809,0.490,0.970,0.700,0.325,0.568,0.533,�쓌,4.3,��
2023/06/20,14:00,0.540,0.810,0.491,0.968,0.700,0.324,0.569,0.535,�쓌,4.0,��
2023/06/20,14:10,0.540,0.809,0.490,0.970,0.701,0.323,0.567,0.534,���쓌,3.2,��
2023/06/20,14:20,0.540,0.805,0.491,0.968,0.701,0.324,0.569,0.535,���쓌,3.4,��
2023/06/20,14:30,0.541,0.809,0.491,0.971,0.700,0.325,0.567,0.534,�쓌,4.5,��
2023/06/20,14:40,0.540,0.809,0.491,0.970,0.699,0.324,0.569,0.534,���쓌,3.8,��
2023/06/20,14:50,0.541,0.810,0.490,0.969,0.699,0.323,0.570,0.535,�쓌,4.3,��
2023/06/20,15:00,0.541,0.810,0.490,0.972,0.699,0.325,0.568,0.534,�쓌,4.2,��
2023/06/20,15:10,0.539,0.807,0.490,0.970,0.701,0.324,0.568,0.534,���쓌,4.0,��
2023/06/20,15:20,0.540,0.809,0.489,0.970,0.702,0.324,0.571,0.534,���쓌,4.3,��
2023/06/20,15:30,0.540,0.811,0.490,0.968,0.700,0.324,0.571,0.535,���쓌,4.0,��
2023/06/20,15:40,0.540,0.811,0.489,0.972,0.700,0.325,0.569,0.533,�쓌,3.0,��
2023/06/20,15:50,0.540,0.810,0.490,0.970,0.701,0.324,0.571,0.534,�쓌,3.8,��
2023/06/20,16:00,0.540,0.811,0.491,0.971,0.700,0.324,0.570,0.534,���쓌,3.6,��
2023/06/20,16:10,0.540,0.811,0.490,0.973,0.701,0.325,0.570,0.533,�쓌,3.9,��
2023/06/20,16:20,0.540,0.809,0.491,0.971,0.701,0.323,0.569,0.533,���쓌,3.7,��
2023/06/20,16:30,0.542,0.812,0.491,0.969,0.699,0.324,0.569,0.534,�쓌,2.8,��
2023/06/20,16:40,0.541,0.812,0.490,0.971,0.701,0.325,0.569,0.533,�쓌,3.4,��
2023/06/20,16:50,0.540,0.813,0.490,0.970,0.701,0.324,0.569,0.536,���쓌,3.2,��
2023/06/20,17:00,0.542,0.812,0.491,0.971,0.700,0.325,0.569,0.533,�쓌,3.5,��
2023/06/20,17:10,0.542,0.811,0.490,0.969,0.700,0.324,0.569,0.532,���쓌,3.0,��
2023/06/20,17:20,0.541,0.814,0.491,0.973,0.702,0.325,0.569,0.533,�쓌,3.5,��
2023/06/20,17:30,0.541,0.811,0.491,0.973,0.699,0.326,0.568,0.535,�쓌,2.9,��
2023/06/20,17:40,0.539,0.809,0.490,0.974,0.701,0.324,0.569,0.534,�쓌,3.9,��
2023/06/20,17:50,0.543,0.812,0.491,0.973,0.701,0.326,0.569,0.535,��쓌,4.4,��
2023/06/20,18:00,0.541,0.812,0.490,0.973,0.700,0.324,0.568,0.535,��쓌,4.8,��
2023/06/20,18:10,0.539,0.814,0.491,0.972,0.699,0.326,0.569,0.535,��쓌,5.1,��
2023/06/20,18:20,0.540,0.812,0.491,0.974,0.701,0.326,0.570,0.535,��쓌,4.1,��
2023/06/20,18:30,0.541,0.815,0.489,0.972,0.699,0.325,0.568,0.536,��,4.2,��
2023/06/20,18:40,0.542,0.814,0.491,0.974,0.700,0.325,0.567,0.536,��,4.4,��
2023/06/20,18:50,0.541,0.813,0.491,0.972,0.700,0.325,0.568,0.534,��,4.8,��
2023/06/20,19:00,0.543,0.815,0.492,0.973,0.702,0.325,0.568,0.535,��,5.9,��
2023/06/20,19:10,0.541,0.815,0.490,0.971,0.702,0.325,0.570,0.535,��,6.3,��
2023/06/20,19:20,0.542,0.813,0.489,0.974,0.703,0.325,0.572,0.535,��,6.2,��
2023/06/20,19:30,0.541,0.813,0.491,0.976,0.704,0.326,0.571,0.537,��,6.4,��
2023/06/20,19:40,0.541,0.812,0.491,0.976,0.702,0.325,0.571,0.535,��,7.1,��
2023/06/20,19:50,0.541,0.813,0.491,0.975,0.703,0.325,0.572,0.534,��,6.5,��
2023/06/20,20:00,0.542,0.815,0.491,0.975,0.704,0.325,0.570,0.535,��,6.1,��
2023/06/20,20:10,0.542,0.814,0.492,0.977,0.702,0.326,0.571,0.535,��,6.0,��
2023/06/20,20:20,0.541,0.811,0.492,0.974,0.701,0.325,0.571,0.536,��,5.7,��
2023/06/20,20:30,0.542,0.814,0.491,0.977,0.703,0.325,0.571,0.534,��,5.6,��
2023/06/20,20:40,0.542,0.813,0.492,0.976,0.703,0.327,0.569,0.534,��,5.8,��
2023/06/20,20:50,0.542,0.812,0.492,0.976,0.704,0.325,0.570,0.534,��,5.6,��
2023/06/20,21:00,0.542,0.813,0.492,0.975,0.703,0.326,0.571,0.535,��,5.5,��
2023/06/20,21:10,0.542,0.815,0.492,0.975,0.703,0.325,0.571,0.535,��,4.9,��
2023/06/20,21:20,0.545,0.813,0.492,0.977,0.704,0.327,0.571,0.536,��,3.6,��
2023/06/20,21:30,0.542,0.815,0.492,0.976,0.704,0.326,0.569,0.535,��,3.6,��
2023/06/20,21:40,0.543,0.812,0.492,0.975,0.703,0.324,0.571,0.535,��,4.2,��
2023/06/20,21:50,0.541,0.812,0.491,0.976,0.703,0.326,0.570,0.535,��,4.2,��
2023/06/20,22:00,0.541,0.814,0.491,0.976,0.703,0.326,0.569,0.536,��,4.2,��
2023/06/20,22:10,0.542,0.813,0.490,0.975,0.704,0.328,0.570,0.535,��,4.9,��
2023/06/20,22:20,0.543,0.813,0.491,0.975,0.704,0.324,0.571,0.537,��,5.4,��
2023/06/20,22:30,0.543,0.813,0.491,0.976,0.701,0.325,0.570,0.535,��,5.8,��
2023/06/20,22:40,0.542,0.814,0.492,0.976,0.704,0.326,0.571,0.535,��,5.6,��
2023/06/20,22:50,0.541,0.812,0.492,0.975,0.703,0.327,0.571,0.536,��쐼,4.5,��
2023/06/20,23:00,0.540,0.813,0.492,0.975,0.702,0.325,0.570,0.535,��,4.4,��
2023/06/20,23:10,0.541,0.815,0.491,0.975,0.704,0.325,0.571,0.535,��,5.0,��
2023/06/20,23:20,0.541,0.813,0.491,0.975,0.701,0.326,0.569,0.535,��,4.9,��
2023/06/20,23:30,0.543,0.813,0.491,0.974,0.704,0.327,0.570,0.535,��,5.1,��
2023/06/20,23:40,0.542,0.813,0.491,0.973,0.704,0.325,0.570,0.536,��,4.6,��
2023/06/20,23:50,0.540,0.813,0.492,0.974,0.703,0.326,0.573,0.536,��,4.5,��
